Home   Weather   Helsingborg   Past weeks

Flag for Sweden Past Weather in Helsingborg, Sweden — Yesterday and Last 2 Weeks

Now
37 °F

Fog.


Feels Like: 32 °F
Forecast: 31 / 37 °F
Wind: 7 mph from Northwest

Location: Ljungbyhed

Current Time: Jan 21, 2017 at 7:53:57 am

Latest Report: Jan 21, 2017 at 7:20 am


Visibility: 0 mi

Pressure: 30.39 "Hg

Humidity: 100%

Dew Point: 37 °F

Location of HelsingborgLocation

Past Weather in Helsingborg — Graph

°F

Helsingborg Temperature Yesterday

Maximum temperature yesterday: 46 °F (at 12:50 pm)
Minimum temperature yesterday: 39 °F (at 12:20 am)
Average temperature yesterday: 42 °F

High & Low Weather Summary for the Past Weeks

 TemperatureHumidityPressure
High46 °F (Jan 20, 12:50 pm)100% (Jan 17, 10:20 am)30.60 "Hg (Jan 17, 10:20 am)
Low21 °F (Jan 17, 7:50 am)75% (Jan 17, 12:50 pm)30.36 "Hg (Jan 20, 2:20 pm)
Average38 °F92%30.48 "Hg
* Reported Jan 17 7:50 am — Jan 21 6:20 am, Helsingborg, Weather by CustomWeather, © 2017

Note: Actual official high and low records may vary slightly from our data, if they occured in-between our weather recording intervals... More about our weather records

Advertising

Helsingborg Weather History for the Previous 24 Hours

Scroll right to see more
 ConditionsComfort  
Time TempWeatherWind HumidityBarometerVisibility
6:20 am
Sat, Jan 21
39 °FFog.8 mph100%30.39 "Hg0 mi
5:50 am39 °FFog.7 mph100%30.39 "Hg0 mi
5:20 am39 °FFog.7 mph100%30.39 "Hg0 mi
4:50 am39 °FFog.6 mph100%30.39 "Hg0 mi
4:20 am39 °FFog.6 mph100%30.39 "Hg0 mi
3:50 am39 °FFog.8 mph100%30.39 "Hg0 mi
3:20 am39 °FFog.7 mph100%30.39 "Hg0 mi
2:50 am39 °FFog.10 mph100%30.39 "Hg0 mi
2:20 am39 °FFog.10 mph100%30.39 "Hg1 mi
1:50 am39 °FFog.10 mph100%30.39 "Hg3 mi
1:20 am39 °FFog.8 mph100%30.39 "Hg5 mi
12:50 am39 °FFog.7 mph100%30.39 "Hg6 mi
12:20 am39 °FLow clouds.7 mph100%30.39 "HgN/A
11:50 pm
Fri, Jan 20
39 °FLow clouds.6 mph100%30.39 "HgN/A
11:20 pm39 °FLow clouds.6 mph93%30.39 "HgN/A
10:50 pm39 °FLow clouds.5 mph93%30.39 "HgN/A
10:20 pm39 °FLow clouds.6 mph93%30.39 "HgN/A
9:50 pm39 °FLow clouds.7 mph100%30.39 "HgN/A
9:20 pm39 °FOvercast.8 mph93%30.39 "HgN/A
8:50 pm39 °FOvercast.8 mph93%30.39 "HgN/A
8:20 pm41 °FOvercast.9 mph93%30.39 "HgN/A
7:50 pm41 °FOvercast.12 mph93%30.39 "HgN/A
7:20 pm41 °FOvercast.14 mph93%30.36 "HgN/A
6:50 pm43 °FOvercast.14 mph87%30.36 "HgN/A
6:20 pm43 °FOvercast.16 mph87%30.36 "HgN/A
5:50 pm43 °FOvercast.17 mph87%30.36 "HgN/A
5:20 pm43 °FOvercast.16 mph87%30.36 "HgN/A
4:50 pm45 °FOvercast.16 mph81%30.36 "HgN/A
4:20 pm45 °FOvercast.17 mph81%30.36 "HgN/A
3:50 pm45 °FOvercast.18 mph81%30.36 "HgN/A
3:20 pm45 °FOvercast.20 mph87%30.36 "HgN/A
2:50 pm45 °FOvercast.20 mph87%30.36 "HgN/A
2:20 pm45 °FOvercast.18 mph87%30.36 "HgN/A
1:50 pm45 °FPartly sunny.20 mph87%30.39 "HgN/A
1:20 pm46 °FCool.20 mph82%30.39 "HgN/A
12:50 pm46 °FCool.17 mph82%30.39 "HgN/A
12:20 pm45 °FScattered clouds.16 mph87%30.39 "HgN/A
11:50 am45 °FOvercast.16 mph87%30.39 "HgN/A
11:20 am43 °FOvercast.18 mph93%30.39 "HgN/A
10:50 am43 °FOvercast.17 mph87%30.42 "HgN/A
10:20 am43 °FOvercast.17 mph87%30.42 "HgN/A
9:50 am43 °FOvercast.16 mph87%30.42 "HgN/A
9:20 am43 °FLow clouds.15 mph93%30.42 "HgN/A
8:50 am43 °FLow clouds.17 mph93%30.42 "HgN/A
8:20 am43 °FLow clouds.17 mph93%30.42 "HgN/A
7:50 am43 °FLow clouds.15 mph93%30.39 "HgN/A
7:20 am41 °FLow clouds.12 mph100%30.39 "HgN/A
Weather by CustomWeather, © 2017

See weather overviewHow to use our weather pages